Previsão horária em Abramovo

Hoje, 16 Maio, Domingo

Tempo Temperatura Precipitação Vento Pressão Humidade
00:00 +17°C° 0.3 mm 2 m/s 745 mmHg 88%
01:00 +17°C° 0.3 mm 2 m/s 745 mmHg 89%
02:00 +17°C° 0 mm 2 m/s 745 mmHg 90%
03:00 +16°C° 0 mm 2 m/s 745 mmHg 92%
04:00 +15°C° 0 mm 2 m/s 745 mmHg 94%
05:00 +17°C° 0 mm 2 m/s 745 mmHg 89%
06:00 +18°C° 0 mm 2 m/s 745 mmHg 84%
07:00 +19°C° 0 mm 3 m/s 745 mmHg 79%
08:00 +21°C° 0 mm 3 m/s 745 mmHg 70%
09:00 +24°C° 0 mm 3 m/s 746 mmHg 60%
10:00 +27°C° 0 mm 4 m/s 746 mmHg 50%
11:00 +28°C° 0 mm 4 m/s 745 mmHg 42%
12:00 +30°C° 0 mm 5 m/s 745 mmHg 34%
13:00 +32°C° 0 mm 5 m/s 745 mmHg 27%
14:00 +32°C° 0 mm 5 m/s 745 mmHg 27%
15:00 +33°C° 0 mm 5 m/s 745 mmHg 27%
16:00 +33°C° 0 mm 5 m/s 745 mmHg 27%
17:00 +30°C° 0 mm 5 m/s 744 mmHg 31%
18:00 +29°C° 0 mm 5 m/s 744 mmHg 34%
19:00 +27°C° 0 mm 5 m/s 743 mmHg 38%
20:00 +25°C° 0 mm 4 m/s 743 mmHg 42%
21:00 +23°C° 0 mm 4 m/s 744 mmHg 47%
22:00 +21°C° 0 mm 3 m/s 744 mmHg 52%
23:00 +20°C° 0 mm 2 m/s 744 mmHg 59%

Amanhã, 17 Maio, Segunda-feira

Tempo Temperatura Precipitação Vento Pressão Humidade
00:00 +19°C° 0 mm 2 m/s 744 mmHg 67%
01:00 +18°C° 0 mm 1 m/s 744 mmHg 74%
02:00 +18°C° 0 mm 1 m/s 744 mmHg 76%
03:00 +18°C° 0 mm 1 m/s 744 mmHg 79%
04:00 +16°C° 0 mm 1 m/s 744 mmHg 81%
05:00 +17°C° 0.5 mm 2 m/s 745 mmHg 81%
06:00 +18°C° 0.5 mm 2 m/s 745 mmHg 80%
07:00 +18°C° 0.5 mm 2 m/s 745 mmHg 80%
08:00 +20°C° 0.2 mm 3 m/s 745 mmHg 71%
09:00 +22°C° 0.2 mm 4 m/s 745 mmHg 62%
10:00 +23°C° 0.2 mm 4 m/s 745 mmHg 53%
11:00 +25°C° 0.1 mm 4 m/s 745 mmHg 48%
12:00 +25°C° 0.1 mm 5 m/s 745 mmHg 43%
13:00 +26°C° 0.1 mm 5 m/s 745 mmHg 37%
14:00 +26°C° 0 mm 5 m/s 745 mmHg 37%
15:00 +27°C° 0 mm 5 m/s 745 mmHg 36%
16:00 +27°C° 0 mm 4 m/s 744 mmHg 36%
17:00 +26°C° 0 mm 4 m/s 744 mmHg 42%
18:00 +24°C° 0 mm 3 m/s 745 mmHg 48%
19:00 +23°C° 0 mm 2 m/s 745 mmHg 54%
20:00 +20°C° 0 mm 2 m/s 745 mmHg 59%
21:00 +19°C° 0 mm 2 m/s 745 mmHg 65%
22:00 +18°C° 0 mm 2 m/s 745 mmHg 70%
23:00 +17°C° 0 mm 2 m/s 745 mmHg 75%

Depois de amanhã, 18 Maio, Terça-feira

Tempo Temperatura Precipitação Vento Pressão Humidade
00:00 +16°C° 0 mm 2 m/s 745 mmHg 80%
01:00 +15°C° 0 mm 2 m/s 746 mmHg 85%
02:00 +15°C° 0 mm 2 m/s 746 mmHg 86%
03:00 +13°C° 0 mm 3 m/s 746 mmHg 87%
04:00 +13°C° 0 mm 3 m/s 747 mmHg 88%
05:00 +13°C° 0 mm 3 m/s 747 mmHg 83%
06:00 +13°C° 0 mm 4 m/s 748 mmHg 77%
07:00 +13°C° 0 mm 4 m/s 748 mmHg 72%
08:00 +13°C° 0 mm 4 m/s 749 mmHg 68%
09:00 +14°C° 0 mm 4 m/s 749 mmHg 65%
10:00 +14°C° 0 mm 4 m/s 750 mmHg 62%
11:00 +15°C° 0 mm 4 m/s 750 mmHg 58%
12:00 +17°C° 0 mm 4 m/s 750 mmHg 53%
13:00 +19°C° 0 mm 3 m/s 750 mmHg 49%
14:00 +19°C° 0 mm 3 m/s 750 mmHg 47%
15:00 +20°C° 0 mm 3 m/s 750 mmHg 46%
16:00 +20°C° 0 mm 3 m/s 751 mmHg 44%
17:00 +19°C° 0 mm 2 m/s 751 mmHg 48%
18:00 +19°C° 0 mm 2 m/s 751 mmHg 52%
19:00 +18°C° 0 mm 2 m/s 751 mmHg 55%
20:00 +16°C° 0 mm 1 m/s 751 mmHg 60%
21:00 +15°C° 0 mm 1 m/s 751 mmHg 65%
22:00 +13°C° 0 mm 1 m/s 752 mmHg 70%
23:00 +12°C° 0 mm 1 m/s 752 mmHg 72%

19 Maio, Quarta-feira

Tempo Temperatura Precipitação Vento Pressão Humidade
00:00 +12°C° 0 mm 1 m/s 752 mmHg 74%
01:00 +10°C° 0 mm 2 m/s 752 mmHg 76%
02:00 +10°C° 0 mm 2 m/s 753 mmHg 77%
03:00 +9°C° 0 mm 2 m/s 753 mmHg 79%
04:00 +9°C° 0 mm 2 m/s 753 mmHg 81%
05:00 +10°C° 0 mm 2 m/s 753 mmHg 75%
06:00 +12°C° 0 mm 2 m/s 753 mmHg 68%
07:00 +14°C° 0 mm 2 m/s 754 mmHg 62%
08:00 +20°C° 0 mm 2 m/s 753 mmHg 42%
09:00 +19°C° 0 mm 2 m/s 753 mmHg 45%
10:00 +17°C° 0 mm 2 m/s 753 mmHg 48%
11:00 +19°C° 0 mm 2 m/s 753 mmHg 45%
12:00 +20°C° 0 mm 2 m/s 753 mmHg 42%
13:00 +23°C° 0 mm 1 m/s 752 mmHg 39%
14:00 +23°C° 0 mm 2 m/s 752 mmHg 36%
15:00 +23°C° 0 mm 2 m/s 752 mmHg 34%
16:00 +23°C° 0 mm 2 m/s 751 mmHg 33%
17:00 +18°C° 0 mm 2 m/s 752 mmHg 49%
18:00 +20°C° 0 mm 1 m/s 752 mmHg 50%
19:00 +21°C° 0 mm 1 m/s 751 mmHg 50%
20:00 +19°C° 0 mm 1 m/s 751 mmHg 54%
21:00 +16°C° 0 mm 1 m/s 751 mmHg 57%
22:00 +14°C° 0 mm 1 m/s 751 mmHg 60%
23:00 +14°C° 0 mm 1 m/s 751 mmHg 62%

20 Maio, Quinta-feira

Tempo Temperatura Precipitação Vento Pressão Humidade
00:00 +13°C° 0 mm 1 m/s 751 mmHg 64%
01:00 +13°C° 0 mm 1 m/s 751 mmHg 66%
02:00 +12°C° 0 mm 1 m/s 751 mmHg 67%
03:00 +12°C° 0 mm 1 m/s 751 mmHg 69%
04:00 +11°C° 0 mm 1 m/s 751 mmHg 71%
05:00 +13°C° 0 mm 1 m/s 751 mmHg 66%
06:00 +15°C° 0 mm 2 m/s 751 mmHg 60%
07:00 +17°C° 0 mm 2 m/s 751 mmHg 55%
08:00 +19°C° 0 mm 2 m/s 751 mmHg 49%
09:00 +21°C° 0 mm 2 m/s 751 mmHg 44%
10:00 +24°C° 0 mm 2 m/s 750 mmHg 38%
11:00 +25°C° 0 mm 2 m/s 750 mmHg 35%
12:00 +26°C° 0 mm 2 m/s 750 mmHg 32%
13:00 +27°C° 0 mm 2 m/s 749 mmHg 28%
14:00 +27°C° 0 mm 2 m/s 749 mmHg 28%
15:00 +27°C° 0 mm 2 m/s 749 mmHg 27%
16:00 +27°C° 0 mm 3 m/s 749 mmHg 26%
17:00 +26°C° 0 mm 2 m/s 749 mmHg 33%
18:00 +25°C° 0 mm 2 m/s 748 mmHg 40%
19:00 +23°C° 0 mm 1 m/s 748 mmHg 46%
20:00 +22°C° 0 mm 1 m/s 748 mmHg 49%
21:00 +20°C° 0 mm 1 m/s 748 mmHg 53%
22:00 +17°C° 0 mm 2 m/s 748 mmHg 56%
23:00 +16°C° 0 mm 2 m/s 748 mmHg 59%

21 Maio, Sexta-feira

Tempo Temperatura Precipitação Vento Pressão Humidade
00:00 +16°C° 0 mm 2 m/s 748 mmHg 63%
01:00 +15°C° 0 mm 2 m/s 749 mmHg 66%
02:00 +15°C° 0 mm 2 m/s 749 mmHg 69%
03:00 +14°C° 0 mm 1 m/s 749 mmHg 71%
04:00 +14°C° 0 mm 1 m/s 749 mmHg 74%
05:00 +16°C° 0 mm 1 m/s 749 mmHg 68%
06:00 +18°C° 0 mm 1 m/s 749 mmHg 63%
07:00 +20°C° 0 mm 1 m/s 749 mmHg 57%
08:00 +21°C° 0 mm 2 m/s 749 mmHg 51%
09:00 +23°C° 0 mm 2 m/s 749 mmHg 45%
10:00 +25°C° 0 mm 3 m/s 749 mmHg 38%
11:00 +26°C° 0 mm 3 m/s 749 mmHg 35%
12:00 +27°C° 0 mm 3 m/s 749 mmHg 32%
13:00 +28°C° 0 mm 3 m/s 749 mmHg 28%
14:00 +28°C° 0 mm 3 m/s 749 mmHg 28%
15:00 +28°C° 0 mm 3 m/s 749 mmHg 27%
16:00 +28°C° 0 mm 3 m/s 749 mmHg 27%
17:00 +27°C° 0 mm 3 m/s 749 mmHg 33%
18:00 +26°C° 0 mm 2 m/s 748 mmHg 39%
19:00 +25°C° 0 mm 2 m/s 748 mmHg 46%
20:00 +23°C° 0 mm 2 m/s 748 mmHg 50%
21:00 +20°C° 0 mm 2 m/s 749 mmHg 54%
22:00 +18°C° 0 mm 2 m/s 749 mmHg 58%
23:00 +17°C° 0 mm 2 m/s 749 mmHg 62%
Mostrar mais

Necessitamos do seu Consentimento

A Meteoprog e os seus Fornecedores de Serviços podem armazenar e aceder a dados pessoais como cookies, identificadores do dispositivo ou outras tecnologias semelhantes existentes no seu dispositivo e processar estes dados para personalizar conteúdos e anúncios, assim como funcionalidades nas redes sociais e análise de tráfego.

  • Armazenar e/ou aceder a informações no seu dispositivo

    Os cookies, identificadores do dispositivo ou outras informações podem ser armazenados ou acedidos no seu dispositivo, para os fins acima indicados.

  • Anúncios e conteúdos personalizados, medição de anúncios e conteúdos, dados sobre o público-alvo e desenvolvimento de produtos

    Os anúncios e os conteúdos podem ser personalizados com base num perfil. Podem ser adicionados dados adicionais para uma maior personalização dos anúncios e dos conteúdos. A eficácia dos anúncios e dos conteúdos pode ser medida. Podem ser obtidas informações sobre o público que visualizou os anúncios e os conteúdos. Estes dados podem ser usados para desenvolver ou melhorar sistemas, softwares ou a experiência do utilizador.

Ao clicar em "Eu concordo”, permitirá o uso de cookies, identificadores do dispositivo e web beacons mencionados ou outras tecnologias semelhantes. As configurações do navegador do seu dispositivo podem ser alteradas.

Para certos fins, podem ser invocados interesses legítimos ao invés de consentimento. Pode ler mais informação sobre este assunto na nossa Política de Privacidade e Cookies.